Miscellaneous Local Product
Issued by NWS Hastings, NE

Home | Current Version | Previous Version | Graphics & Text | Print | Product List | Glossary On
Versions: 1 2 3 4 5 6 7 8 9 10 11 12 13 14 15 16 17 18 19 20 21 22 23 24 25 26 27 28 29 30 31 32 33 34 35 36 37 38 39 40 41 42 43 44 45 46 47 48 49 50
008
AXUS43 KGID 280702
MISGRI

GID CWA HOURLY WEATHER ROUNDUP
NATIONAL WEATHER SERVICE HASTINGS NE
200 AM CDT SUN MAY 28 2017

NOTE: "FAIR" INDICATES FEW OR NO CLOUDS BELOW 12,000 FEET WITH NO
SIGNIFICANT WEATHER AND/OR OBSTRUCTIONS TO VISIBILITY.

...SOUTH CENTRAL NEBRASKA...

CITY           SKY/WX    TMP DP  RH WIND       PRES   REMARKS
GRAND ISLAND   CLEAR     53  51  93 W8        29.99F
HASTINGS       CLEAR     55  50  83 W8        30.01S
KEARNEY        CLEAR     55  48  76 W8        30.02F
ORD            CLEAR     50  45  83 NW7       29.98F
YORK           PTCLDY    55  52  88 W9        29.98R
AURORA         CLEAR     53  51  92 W7        29.98F
LEXINGTON      CLEAR     49  47  91 NW6       30.05S
HOLDREGE       CLEAR     54  49  83 W9        30.02F
HEBRON         MOCLDY    60  54  79 NW3       29.99R

...NEBRASKA PANHANDLE...

CITY           SKY/WX    TMP DP  RH WIND       PRES   REMARKS
CHADRON        PTCLDY    52  41  66 W6        30.09S
ALLIANCE       CLEAR     41  39  93 W8        30.11S
SCOTTSBLUFF    CLEAR     47  40  76 CALM      30.15S
SIDNEY         CLEAR     44  40  85 W10       30.16F

...WESTERN AND NORTH CENTRAL NEBRASKA...

CITY           SKY/WX    TMP DP  RH WIND       PRES   REMARKS
VALENTINE      PTCLDY    53  44  71 W7        30.01S
AINSWORTH      PTCLDY    55  46  71 W10       29.99F
ONEILL         PTCLDY    54  46  74 W9        29.96F
BROKEN BOW     CLEAR     55  50  83 W14       30.02F
IMPERIAL       CLEAR     50  42  74 W12       30.11F
NORTH PLATTE   CLEAR     45  44  97 W5        30.07F
MCCOOK         CLEAR     49  49 100 SW7       30.07F

...EASTERN NEBRASKA...

CITY           SKY/WX    TMP DP  RH WIND       PRES   REMARKS
NORFOLK        CLEAR     51  48  89 W5        29.93F
SO SIOUX CITY  LGT RAIN  54  51  90 CALM      29.90F
TEKAMAH        PTCLDY    56  49  77 W6        29.90F
ALBION         CLEAR     54  49  82 NW6       29.96F
OMAHA EPPLEY   PTCLDY    58  52  80 NE3       29.92S
OFFUTT AFB     CLEAR     56  52  86 NW6       29.91S
MILLARD        CLEAR     60  54  79 CALM      29.93S
LINCOLN        PTCLDY    60  51  72 W3        29.95F
NEBRASKA CITY  CLEAR     60  54  80 W3        29.95R
BEATRICE       CLEAR     57  55  91 NW3       29.97R
FALLS CITY     MOCLDY    58  56  93 CALM      29.92S

...NORTHERN KANSAS...

CITY           SKY/WX    TMP DP  RH WIND       PRES   REMARKS
GOODLAND       CLEAR     48  45  89 W9        30.14F
HILL CITY      CLEAR     54  51  90 NW7       30.05F
NORTON         SUNNY     54  48  82 W10       30.04F
PHILLIPSBURG   CLEAR     54  54 100 W7        30.04R
SMITH CENTER   CLEAR     52  50  93 NW8       30.02F
HAYS           PTCLDY    59  53  80 NW8       30.04S
RUSSELL        PTCLDY    59  56  89 NW9       30.01R
CONCORDIA      CLOUDY    60  55  83 NW5       30.00R
SALINA         CLOUDY    63  57  81 NW6       30.00R
TOPEKA         CLOUDY    62  60  93 NW8       29.91S



USA.gov is the U.S. government's official web portal to all federal, state and local government web resources and services.